Погода в Сулаке

Россия / Республика Дагестан     43°16′23″N   47°30′56″E
темп.,
°C
ветер,
м/с
пор.,
м/с
влажн.,
%
обл.,
%
осадки,
мм/ч
давл.,
гПа
погр.,
м
25 июня, сб
сб2500:00+22вюв5676100 0.0 1009308
03:00+21юв45785 0.0 1009172
06:00+22юв46735 0.0 1009483
09:00+24в3360100 0.0 1009537
12:00+25всв545532 0.0 1009749
15:00+25всв4554100 0.0 1008651
18:00+24ссв1265100 0.4 1009139
21:00+23сз3371100 0.4 100933
26 июня, вс
вс2600:00+22зсз4476100 0.0 1008109
03:00+21зсз4576100 0.0 1007156
06:00+21сз6873100 0.0 1008269
09:00+26сз555349 0.0 1008684
12:00+27св4449100 0.0 1006766
15:00+28ссв4447100 0.0 1005649
18:00+27с4553100 0.0 1005370
21:00+24зсз71166100 0.2 1007233
27 июня, пн
пн2700:00+22зсз10157693 0.5 1007379
03:00+21зсз1015753 0.5 1008381
06:00+22зсз1215680 0.0 1008513
09:00+27сз1112570 0.0 1009811
12:00+27ссв88580 0.0 1009774
15:00+27ссв99571 0.0 1009552
18:00+26ссз81057100 0.0 1009441
21:00+24сз9126296 0.0 1010351
28 июня, вт
вт2800:00+22зсз8126596 0.0 1009302
03:00+21зсз81167100 0.0 1009226
06:00+22зсз910624 0.0 1009315
09:00+27ссз68510 0.0 10081056
12:00+28ссв1010510 0.0 10081118
15:00+27ссв910550 0.0 10081002
18:00+26ссв68510 0.0 1009617
21:00+24сз44559 0.0 101152
29 июня, ср
ср2900:00+22зсз5653100 0.0 101186
03:00+22сз5652100 0.0 1010102
06:00+23зсз57511 0.0 1011201
09:00+28сз45380 0.0 1011730
12:00+26всв97620 0.0 1011537
15:00+25всв87705 0.0 1012749
18:00+23св667566 0.0 1013797
21:00+22всв5573100 0.0 1014610